CW8014 Weather Reports


Display with metric or nautical units.
time (UTC)temp
F
wind
direction
speed
MPH
gust
MPH
rain 1hr
in
rain 24hr
in
rain mn
in
humidity
%
barometer
mb
20260508191408 56 112 1.0 2.0 0.00 0.00 0.00 60 1019.1
20260508190408 56 112 1.0 2.0 0.00 0.00 0.00 58 1018.9
20260508185409 57 112 0.0 2.0 0.00 0.00 0.00 55 1018.9
20260508184408 58 113 1.0 3.0 0.00 0.00 0.00 54 1018.8
20260508183411 59 105 2.0 3.0 0.00 0.00 0.00 51 1018.7
20260508182408 60 113 3.0 7.0 0.00 0.00 0.00 50 1018.6
20260508181408 61 134 4.0 9.0 0.00 0.00 0.00 49 1018.6
20260508180408 62 114 5.0 9.0 0.00 0.00 0.00 50 1018.5
20260508175409 62 113 4.0 9.0 0.00 0.00 0.00 49 1018.4
20260508174409 62 104 5.0 9.0 0.00 0.00 0.00 47 1018.4
20260508172409 62 90 6.0 10.0 0.00 0.00 0.00 47 1018.2
20260508171409 62 117 3.0 8.0 0.00 0.00 0.00 49 1018.1
20260508170409 62 99 5.0 10.0 0.00 0.00 0.00 48 1018.2
20260508165409 64 131 6.0 11.0 0.00 0.00 0.00 44 1018.2
20260508164409 64 165 5.0 11.0 0.00 0.00 0.00 44 1018.0
20260508163409 64 148 4.0 9.0 0.00 0.00 0.00 45 1018.1
20260508162409 64 132 4.0 8.0 0.00 0.00 0.00 44 1018.0
20260508161409 63 131 5.0 10.0 0.00 0.00 0.00 46 1018.1
20260508160409 64 221 6.0 12.0 0.00 0.00 0.00 44 1018.1
20260508154410 64 136 4.0 12.0 0.00 0.00 0.00 42 1018.1
20260508153409 65 139 5.0 11.0 0.00 0.00 0.00 41 1018.1
20260508152409 65 119 6.0 10.0 0.00 0.00 0.00 41 1018.2
20260508151410 65 122 4.0 11.0 0.00 0.00 0.00 41 1018.1
20260508150410 64 76 4.0 10.0 0.00 0.00 0.00 41 1018.3
20260508145410 65 94 5.0 10.0 0.00 0.00 0.00 40 1018.3
20260508144413 66 57 4.0 9.0 0.00 0.00 0.00 39 1018.3
20260508143410 67 94 6.0 11.0 0.00 0.00 0.00 38 1018.4
20260508142501 67 97 5.0 12.0 0.00 0.00 0.00 38 1018.4
20260508141401 67 94 5.0 13.0 0.00 0.00 0.00 39 1018.5
20260508140401 66 80 6.0 11.0 0.00 0.00 0.00 40 1018.6
20260508135404 65 96 5.0 11.0 0.00 0.00 0.00 37 1018.5
20260508134401 65 86 4.0 9.0 0.00 0.00 0.00 36 1018.7
20260508132401 65 96 6.0 15.0 0.00 0.00 0.00 37 1018.8
20260508131401 65 15 5.0 12.0 0.00 0.00 0.00 40 1018.8
20260508125401 65 108 6.0 15.0 0.00 0.00 0.00 40 1018.9
20260508124401 64 102 8.0 14.0 0.00 0.00 0.00 40 1019.0
20260508123401 63 102 9.0 17.0 0.00 0.00 0.00 37 1019.0
20260508122405 64 108 9.0 15.0 0.00 0.00 0.00 40 1019.1
20260508121402 63 110 4.0 12.0 0.00 0.00 0.00 42 1019.2
20260508120402 63 103 7.0 16.0 0.00 0.00 0.00 42 1019.1
20260508115402 63 117 5.0 9.0 0.00 0.00 0.00 43 1019.1
20260508114402 62 132 9.0 15.0 0.00 0.00 0.00 41 1019.1
20260508113402 62 88 7.0 12.0 0.00 0.00 0.00 44 1019.3
20260508112402 62 62 6.0 11.0 0.00 0.00 0.00 43 1019.3
20260508111402 61 142 5.0 14.0 0.00 0.00 0.00 43 1019.3
20260508110402 61 148 7.0 13.0 0.00 0.00 0.00 40 1019.3
20260508105402 61 76 4.0 10.0 0.00 0.00 0.00 46 1019.4
20260508104405 60 59 6.0 14.0 0.00 0.00 0.00 44 1019.5
20260508102402 60 109 7.0 16.0 0.00 0.00 0.00 44 1019.4
20260508101402 60 132 6.0 14.0 0.00 0.00 0.00 47 1019.5
20260508100405 59 74 9.0 14.0 0.00 0.00 0.00 46 1019.7
20260508095405 60 134 8.0 15.0 0.00 0.00 0.00 47 1019.6
20260508094402 59 124 5.0 13.0 0.00 0.00 0.00 47 1019.7
20260508093403 59 107 6.0 13.0 0.00 0.00 0.00 50 1019.7
20260508092402 59 132 8.0 14.0 0.00 0.00 0.00 45 1019.8
20260508091403 58 108 7.0 14.0 0.00 0.00 0.00 46 1019.8
20260508090403 58 154 6.0 12.0 0.00 0.00 0.00 46 1019.9
20260508085403 57 138 7.0 15.0 0.00 0.00 0.00 46 1019.8
20260508084403 57 91 9.0 15.0 0.00 0.00 0.00 48 1019.9
20260508083403 57 165 8.0 13.0 0.00 0.00 0.00 52 1019.9
20260508082403 57 125 5.0 10.0 0.00 0.00 0.00 62 1019.8
20260508081406 57 126 7.0 12.0 0.00 0.00 0.00 58 1019.8
20260508080403 56 33 5.0 10.0 0.00 0.00 0.00 67 1019.9
20260508075404 56 94 3.0 9.0 0.00 0.00 0.00 70 1019.8
20260508074403 55 120 4.0 11.0 0.00 0.00 0.00 72 1019.9
20260508071403 54 54 3.0 7.0 0.00 0.00 0.00 78 1019.8
20260508070403 54 114 4.0 9.0 0.00 0.00 0.00 78 1019.7
20260508065404 53 125 2.0 7.0 0.00 0.00 0.00 81 1019.7
20260508064404 52 87 2.0 6.0 0.00 0.00 0.00 82 1019.5
20260508063407 51 41 2.0 7.0 0.00 0.00 0.00 84 1019.4
20260508062404 50 94 4.0 7.0 0.00 0.00 0.00 87 1019.4
20260508061404 49 115 4.0 7.0 0.00 0.00 0.00 90 1019.4
20260508060404 48 135 3.0 4.0 0.00 0.00 0.00 93 1019.3
20260508054407 46 89 2.0 6.0 0.00 0.00 0.00 95 1019.2
20260508053404 45 110 2.0 6.0 0.00 0.00 0.00 96 1019.2
20260508052404 45 84 3.0 7.0 0.00 0.00 0.00 96 1019.2
20260508051404 44 96 2.0 4.0 0.00 0.00 0.00 96 1019.1
20260508050407 42 115 1.0 2.0 0.00 0.00 0.00 95 1019.1
20260508045405 41 115 1.0 2.0 0.00 0.00 0.00 95 1019.0
20260508044404 40 115 1.0 3.0 0.00 0.00 0.00 95 1018.9
20260508043404 40 153 1.0 2.0 0.00 0.00 0.00 95 1018.9
20260508041405 40 160 0.0 0.0 0.00 0.00 0.00 95 1018.8
20260508040405 40 160 0.0 1.0 0.00 0.00 0.00 94 1018.8
20260508035405 40 160 0.0 1.0 0.00 0.00 0.00 94 1018.8
20260508034405 40 160 0.0 1.0 0.00 0.00 0.00 94 1018.7
20260508033405 40 160 0.0 1.0 0.00 0.00 0.00 94 1018.7
20260508032405 40 160 0.0 1.0 0.00 0.00 0.00 94 1018.8
20260508031408 40 160 0.0 0.0 0.00 0.00 0.00 94 1018.7
20260508030405 40 160 0.0 0.0 0.00 0.00 0.00 94 1018.6
20260508025406 41 160 0.0 0.0 0.00 0.00 0.00 94 1018.7
20260508024405 41 160 0.0 0.0 0.00 0.00 0.00 94 1018.7
20260508023405 41 160 0.0 0.0 0.00 0.00 0.00 94 1018.7
20260508022405 42 160 0.0 0.0 0.00 0.00 0.00 93 1018.7
20260508021405 42 160 0.0 0.0 0.00 0.00 0.00 93 1018.8
20260508020406 42 160 0.0 0.0 0.00 0.00 0.00 93 1018.7
20260508015406 43 160 0.0 0.0 0.00 0.00 0.00 93 1018.7
20260508014406 43 160 0.0 0.0 0.00 0.00 0.00 93 1018.7
20260508013405 43 160 0.0 0.0 0.00 0.00 0.00 93 1018.6
20260508012409 44 160 0.0 0.0 0.00 0.00 0.00 93 1018.7
20260508011406 44 160 0.0 0.0 0.00 0.00 0.00 93 1018.7
20260508010406 44 160 0.0 0.0 0.00 0.00 0.00 93 1018.6
20260508005409 44 160 0.0 0.0 0.00 0.00 0.00 92 1018.6
20260508004406 45 160 0.0 0.0 0.00 0.00 0.00 92 1018.5
20260508003406 45 160 0.0 0.0 0.00 0.00 0.00 92 1018.5
20260508002406 46 160 0.0 0.0 0.00 0.00 0.00 92 1018.4
20260508001406 46 160 0.0 0.0 0.00 0.00 0.00 92 1018.4
20260508000406 46 160 0.0 0.0 0.00 0.00 0.00 92 1018.4
20260507235407 46 160 0.0 0.0 0.00 0.00 0.00 92 1018.5
20260507233406 45 160 0.0 0.0 0.00 0.00 0.00 92 1018.5
20260507230407 45 160 0.0 0.0 0.00 0.00 0.00 91 1018.5
20260507225410 45 160 0.0 0.0 0.00 0.00 0.00 90 1018.5
20260507224407 45 160 0.0 1.0 0.00 0.00 0.00 90 1018.4
20260507223407 46 160 1.0 2.0 0.00 0.00 0.00 89 1018.4
20260507221407 46 160 0.0 2.0 0.00 0.00 0.00 89 1018.3
20260507220407 46 160 0.0 0.0 0.00 0.00 0.00 89 1018.3
20260507212407 48 160 0.0 2.0 0.00 0.00 0.00 86 1018.2
20260507211408 48 160 0.0 2.0 0.00 0.00 0.00 86 1018.1
20260507210407 49 160 0.0 1.0 0.00 0.00 0.00 85 1018.1
20260507203407 49 160 0.0 0.0 0.00 0.00 0.00 84 1018.0
20260507202408 49 160 0.0 1.0 0.00 0.00 0.00 84 1017.9
20260507201407 50 161 2.0 4.0 0.00 0.00 0.00 84 1017.7
20260507200407 50 161 0.0 1.0 0.00 0.00 0.00 82 1017.7
20260507195408 51 161 0.0 0.0 0.00 0.00 0.00 81 1017.4
20260507194408 51 161 0.0 1.0 0.00 0.00 0.00 78 1017.4
20260507193408 52 161 1.0 1.0 0.00 0.00 0.00 76 1017.3
20260507192408 53 161 1.0 4.0 0.00 0.00 0.00 75 1017.1